Location: LDNL
(36.4545°S, 141.6685°E)
Time: 03:06:47
(UTC+11:00)

A-11 Canister half - Pass Details

Date: 11 August 2022
Orbit: 1524 x 1684 km, 47.3° (Epoch: 05 October)

Event Time Altitude Azimuth Distance (km) Brightness Sun altitude
Rises 15:25:38 0° 353° (N) 4,721 12.3 25.0°
Reaches altitude 10° 15:29:37 10° 7° (N) 3,723 11.6 24.4°
Maximum altitude 15:36:18 22° 54° (NE) 2,859 10.5 23.4°
Drops below altitude 10° 15:42:56 10° 100° (E) 3,704 10.6 22.4°
Sets 15:46:50 0° 114° (ESE) 4,691 11.0 21.9°
